Regional Weather Roundup
Issued by NWS

Home | Current Version | Previous Version | Graphics & Text | Print | Product List | Glossary On
Versions: 1 2 3 4 5 6 7 8 9 10 11 12 13 14 15 16 17 18 19 20 21 22 23 24 25 26 27 28 29 30 31 32 33 34 35 36 37 38 39 40 41 42 43 44 45 46 47 48 49 50
000
ASUS43 KFSD 061302
RWRSD

WEATHER ROUNDUP FOR SOUTH DAKOTA
NATIONAL WEATHER SERVICE SIOUX FALLS SD
700 AM CST FRI MAR 06 2015

NOTE: "FAIR" INDICATES FEW OR NO CLOUDS BELOW 12,000 FEET WITH NO
SIGNIFICANT WEATHER AND/OR OBSTRUCTIONS TO VISIBILITY.


SDZ001>005-009-010-012>017-061400-
NORTHWEST AND NORTH CENTRAL SOUTH DAKOTA

CITY           SKY/WX    TMP DP  RH WIND       PRES   REMARKS
BUFFALO          N/A     26  15  63 W8        30.01R WCI  18
FAITH            N/A     27  15  61 W10       30.08S WCI  17
MOBRIDGE       CLEAR     15   9  76 CALM      30.06R
$$

SDZ012>016-024>037-041>051-057-063-072>074-061400-
SOUTHWEST AND SOUTH CENTRAL SOUTH DAKOTA

CITY           SKY/WX    TMP DP  RH WIND       PRES   REMARKS
RAPID CTY ARPT CLEAR     27  15  61 W6        30.12R WCI  20
PIERRE         PTCLDY    25  17  72 W10       30.09S WCI  15
CUSTER         PTCLDY    31  13  47 W10       30.11S WCI  22
ELLSWORTH AFB  CLEAR     30  17  57 W8        30.11R WCI  23
PHILIP         PTCLDY    24  17  74 W9        30.12R WCI  14
PINE RIDGE     MOCLDY    32  21  64 W5        30.17R WCI  27
SPEARFISH      FAIR      36  16  44 W15       30.11S
WINNER         PTSUNNY   31  17  56 SW9       30.11S WCI  23
$$

SDZ004>011-016>023-039-040-061400-
NORTHEAST SOUTH DAKOTA

CITY           SKY/WX    TMP DP  RH WIND       PRES   REMARKS
ABERDEEN       CLEAR     13   7  77 CALM      30.07R
WATERTOWN      CLEAR      8   2  76 S5        30.03S WCI   0
$$

SDZ017-020-022-023-036>040-048>070-061400-
SOUTHEAST SOUTH DAKOTA

CITY           SKY/WX    TMP DP  RH WIND       PRES   REMARKS
SIOUX FALLS    PTCLDY    17   9  70 W3        30.09R
HURON          CLOUDY    19  13  77 NE3       30.07S
MITCHELL       CLOUDY    29  19  66 SW7       30.10S WCI  22
YANKTON        CLEAR     23  12  63 CALM      30.14F
$$

ABBREVIATIONS USED IN REMARKS
   TC - TEMPERATURE IN CELSIUS
  WCI - WIND CHILL INDEX
   HX - HEAT INDEX
  VSB - VISIBILITY



USA.gov is the U.S. government's official web portal to all federal, state and local government web resources and services.